Theta_e
293 293 293 291 292 291 291 291 290 290 292 291 288 288 292 292 287 287 291 291 291 295 298 300 300 300 300 302 303 304 305 304 302 301 301 302 304 305 305 307 308 308 307 307 306 306 308 307 306 307 306 306 304 304 303 301 299 299 300 300 300 301 301 301 303 305 306 306 307 308 308 309 311 312 313 314 314 314 314 315 316 318 319 319 317 316 316
291 292 293 293 290 292 292 291 292 293 292 292 293 292 293 292 287 290 291 290 290 293 295 297 299 301 301 301 303 304 301 300 301 301 301 302 303 305 306 308 309 310 310 310 309 307 307 307 307 307 309 309 307 305 305 304 301 300 298 298 299 300 301 302 303 304 304 303 303 303 304 305 307 309 309 310 310 309 309 311 313 313 315 315 315 315 315
288 292 293 292 291 291 289 293 294 294 293 293 294 294 294 293 291 291 289 288 288 295 299 299 301 302 303 303 301 301 301 301 301 301 303 303 305 307 309 310 310 310 310 310 311 310 307 306 306 306 307 308 308 306 305 304 304 302 299 299 299 299 300 302 302 302 301 301 301 300 301 302 304 304 305 305 305 306 306 307 308 309 310 311 312 313 314
285 291 290 289 291 290 290 290 291 290 291 289 291 291 294 293 291 292 291 287 288 295 300 301 302 302 302 302 302 302 303 304 303 304 305 306 307 307 308 308 309 309 309 310 310 310 309 310 306 305 306 306 306 305 306 304 303 301 299 299 300 300 301 301 301 301 300 300 299 299 299 299 300 300 300 300 299 301 301 301 302 301 303 307 309 310 311
284 289 291 289 287 285 283 285 290 292 293 294 294 295 296 295 295 291 288 289 295 298 302 299 300 302 302 303 303 303 303 305 305 305 305 306 307 307 307 308 308 309 309 310 309 308 308 307 307 305 304 304 305 306 305 304 303 301 300 301 301 301 302 301 301 302 301 301 300 300 299 298 298 297 297 296 297 297 299 300 299 299 302 303 304 306 308
284 287 287 288 284 277 278 293 295 294 292 293 292 292 294 296 296 294 297 297 300 300 299 298 298 300 301 303 305 306 305 305 305 305 305 306 306 307 308 308 309 309 310 310 309 308 307 307 306 305 304 304 304 304 302 301 300 301 301 301 301 301 301 301 302 302 300 300 299 299 299 297 296 295 295 295 296 297 298 298 298 299 299 299 301 302 304
284 285 285 282 277 278 295 296 297 296 295 295 294 294 296 297 298 298 297 298 299 300 301 301 302 302 303 303 303 305 306 306 305 305 305 306 306 306 307 308 308 309 308 307 307 306 305 304 304 305 304 303 302 301 301 300 301 300 301 301 301 301 301 301 301 300 300 299 298 299 299 297 296 295 294 294 295 296 297 297 297 298 298 298 299 299 300
287 284 282 275 277 289 293 293 293 297 297 296 294 292 294 296 297 298 297 298 300 301 302 303 303 303 303 301 303 304 305 305 305 305 305 306 306 306 308 307 306 306 306 306 305 304 304 304 304 304 303 302 301 302 302 300 301 300 300 300 301 301 300 301 300 301 300 299 299 299 298 297 295 294 294 294 294 295 295 295 296 297 297 298 299 299 299
281 282 282 280 288 286 288 289 290 293 291 292 290 286 290 295 296 296 296 298 299 300 301 302 303 304 304 301 302 305 303 305 306 306 306 307 306 305 306 306 305 306 305 303 303 302 302 303 303 304 303 301 301 301 302 303 300 300 299 299 301 301 301 301 301 301 300 300 299 299 298 296 296 295 294 294 293 294 295 294 295 295 296 297 297 298 297
287 282 280 281 280 276 283 291 295 297 298 298 297 293 289 297 298 298 297 296 297 298 299 300 301 302 298 296 298 302 303 305 306 304 305 304 304 304 304 304 303 303 303 302 302 301 301 302 304 304 302 300 300 301 301 301 300 300 299 300 301 301 301 301 301 301 301 300 299 298 298 296 295 296 296 295 293 293 294 294 294 295 295 296 296 297 296
284 282 278 278 276 280 288 290 294 295 296 298 299 291 285 295 297 298 298 297 298 298 298 299 300 297 291 294 298 300 300 301 302 303 304 302 302 302 302 300 300 301 301 299 299 300 302 301 303 302 300 299 299 299 299 299 299 299 299 300 301 301 301 301 301 301 300 299 298 298 296 297 295 294 293 293 293 293 293 294 294 295 294 295 294 293 294
283 282 279 277 281 281 288 292 292 292 295 299 294 281 282 295 298 299 299 298 298 299 299 300 299 295 292 294 298 299 300 299 299 300 301 301 300 301 301 302 300 299 298 299 300 300 300 301 301 300 299 298 297 297 298 298 298 298 299 300 301 301 301 300 300 300 299 294 297 293 293 293 293 294 293 293 292 292 292 293 293 294 294 293 292 294 293
283 282 280 282 283 290 292 291 292 292 298 296 283 277 287 296 299 299 300 299 300 300 299 299 296 299 300 298 298 299 299 300 300 299 298 298 298 298 298 299 295 298 299 298 298 299 300 300 299 299 298 297 297 298 297 297 297 299 300 300 300 300 299 299 299 299 299 298 293 293 292 294 293 292 293 293 292 291 291 292 292 293 292 291 291 292 293
281 282 280 280 284 290 293 293 293 294 293 282 281 291 296 297 295 295 298 299 299 298 298 298 298 299 298 298 298 298 298 298 298 298 297 297 297 297 295 293 293 296 297 297 296 296 297 298 298 298 297 296 296 297 296 296 297 299 299 299 299 299 298 298 298 297 293 293 292 292 291 291 291 291 292 291 291 291 292 292 290 290 290 291 292 292 292
280 281 279 278 275 287 293 292 290 293 288 289 295 295 293 296 296 296 297 299 296 296 295 298 298 298 297 296 297 297 296 296 297 297 296 295 295 295 294 294 295 295 295 295 296 296 296 296 297 297 294 292 294 295 295 296 298 298 298 298 298 297 297 296 293 292 292 291 291 291 290 290 290 290 291 290 289 290 290 290 290 289 289 290 290 291 292
278 279 276 278 286 290 295 295 289 292 295 295 295 297 293 292 295 296 296 294 296 297 297 296 296 296 295 295 296 295 294 293 294 294 294 293 293 293 293 293 294 293 294 294 295 295 295 294 294 293 293 292 292 291 294 296 296 296 296 297 296 294 291 292 292 291 290 290 290 291 290 290 290 289 290 290 290 290 290 290 291 290 291 290 290 290 290
284 282 285 290 289 293 295 297 297 298 295 293 294 294 294 294 293 293 295 294 294 296 297 296 296 296 295 295 295 294 294 292 291 292 293 293 292 292 292 291 292 291 292 291 292 292 292 292 293 294 294 292 289 289 294 296 296 295 295 292 291 290 290 290 290 290 290 290 290 290 290 290 290 290 289 289 290 290 290 290 290 290 291 291 291 291 291
290 291 289 293 288 289 293 292 290 291 290 290 293 294 293 294 294 294 294 294 295 294 294 294 293 295 295 294 294 294 294 293 292 290 290 290 290 289 289 290 290 290 290 290 290 290 290 290 291 291 291 292 289 292 295 295 295 294 291 289 289 289 289 290 290 290 289 290 290 289 289 290 290 291 291 291 290 291 291 290 290 290 290 290 290 290 291
285 281 290 288 289 290 289 292 290 289 291 292 291 291 294 293 293 292 294 295 294 293 293 293 292 293 293 293 294 294 294 293 293 292 291 290 289 289 289 289 288 288 288 289 290 290 290 291 291 291 289 290 291 292 293 294 292 291 289 289 289 289 290 290 290 290 290 291 292 292 290 290 291 291 292 292 291 291 291 291 290 290 290 290 290 290 290
284 285 289 289 290 291 291 292 290 289 289 290 290 293 292 292 291 292 292 290 290 291 292 293 293 292 293 292 292 292 292 292 292 292 292 291 291 291 290 289 288 288 288 288 289 289 290 292 292 291 290 290 292 291 290 290 289 289 288 289 289 290 290 290 291 291 291 289 290 291 292 291 291 291 291 291 291 291 291 291 291 290 290 290 290 290 291
287 289 286 285 287 287 288 288 289 291 292 291 289 288 288 288 288 287 288 290 292 291 292 292 292 291 291 291 291 290 291 291 291 291 291 291 291 291 289 289 288 289 288 288 288 289 290 291 291 290 290 290 291 290 290 289 289 288 289 289 289 289 289 290 291 291 291 291 291 291 291 291 291 292 292 291 291 291 291 292 292 291 291 291 291 292 292
282 283 286 286 283 284 286 288 290 289 288 288 288 286 285 286 287 287 288 288 288 289 290 290 290 290 290 290 290 289 290 290 290 290 290 290 289 289 290 290 289 288 288 288 288 288 290 291 290 290 290 291 291 291 290 289 289 288 288 289 289 290 290 291 291 291 291 292 292 291 291 291 290 290 289 288 291 291 291 289 289 289 290 292 293 293 293
283 285 284 288 288 285 286 286 286 287 287 288 287 288 287 287 287 287 287 286 287 287 287 288 289 289 289 289 289 288 288 289 290 290 289 288 288 289 289 288 288 288 288 288 288 288 289 290 290 290 290 291 291 290 289 289 289 289 289 289 290 291 291 291 291 291 291 291 291 291 291 291 290 290 290 290 288 288 289 289 289 288 288 289 290 290 291
284 285 286 286 287 285 285 286 286 286 288 287 286 287 287 287 286 286 286 286 285 286 286 286 287 287 287 288 288 287 288 288 288 288 288 288 288 288 288 288 287 287 287 288 288 288 290 290 289 289 289 290 291 290 289 289 289 289 289 289 290 291 291 291 291 291 291 291 290 290 291 291 290 290 290 290 291 288 287 287 288 288 288 288 288 289 289
285 286 284 283 283 284 285 284 284 286 286 287 286 285 284 284 284 285 284 285 285 285 285 285 286 287 286 286 287 286 286 286 287 287 287 287 287 287 288 288 287 287 288 289 290 290 290 289 289 289 289 290 290 289 289 289 288 288 288 288 289 289 290 290 291 291 290 290 290 290 290 290 290 290 289 290 289 290 289 287 287 288 288 288 288 288 289
286 284 283 282 282 282 284 283 283 284 284 284 284 283 283 283 283 284 284 284 285 285 284 284 284 285 285 285 285 285 285 285 286 286 287 287 287 287 287 287 288 289 289 289 289 289 289 288 288 288 288 289 289 289 288 288 288 288 288 288 288 289 290 290 290 290 290 290 290 291 290 291 291 290 290 290 290 289 289 290 289 287 287 287 287 288 288
282 283 282 281 282 282 283 282 282 282 282 282 281 282 283 283 282 283 284 283 283 284 283 284 284 284 284 285 284 285 284 285 285 286 286 286 286 287 288 288 288 288 288 288 288 288 287 287 287 287 288 289 288 288 288 288 288 288 288 288 289 288 287 287 289 289 290 290 290 290 290 290 290 290 289 290 290 289 289 289 289 289 289 288 287 287 288
282 282 283 280 279 280 280 280 281 281 282 281 282 282 282 282 282 282 282 282 283 283 284 284 284 283 283 284 284 284 285 285 285 285 286 286 287 288 288 288 288 288 288 287 287 287 287 288 287 287 288 289 288 288 288 288 287 287 288 288 288 289 289 289 289 289 289 289 290 290 290 290 290 289 290 290 290 290 289 289 289 289 289 290 289 287 286
281 280 281 281 280 279 279 280 280 280 280 281 281 282 281 280 280 280 281 282 282 282 282 283 284 283 284 284 284 284 284 284 284 284 285 286 287 287 288 287 287 286 286 286 287 287 287 287 287 287 287 289 288 288 288 288 287 287 288 288 288 288 288 289 289 289 289 289 289 289 288 289 289 289 290 289 289 289 290 289 289 289 289 289 289 289 287
278 277 277 278 278 278 278 278 279 280 280 280 280 280 281 280 280 280 281 281 282 281 282 283 283 282 283 282 283 283 283 283 283 284 285 285 286 286 286 286 285 285 285 285 285 286 286 286 286 286 287 288 288 288 287 286 286 286 286 285 286 286 287 287 287 287 287 288 288 287 288 288 288 289 289 289 289 289 289 289 289 289 289 289 288 288 287
274 274 274 275 275 277 277 278 279 279 279 280 280 279 280 279 279 279 279 279 279 279 280 279 278 278 278 279 280 280 280 280 280 280 281 281 282 283 283 283 282 282 283 284 284 285 284 285 285 286 287 287 287 286 283 283 284 285 285 285 286 285 285 285 285 286 286 287 287 287 288 288 288 288 288 288 289 289 289 289 288 288 288 289 289 288 288
273 274 274 275 276 276 276 278 277 278 277 276 275 275 275 274 273 273 274 274 275 276 276 276 276 276 277 277 277 277 277 277 277 277 278 279 280 280 281 281 281 281 281 282 283 284 284 284 284 286 287 287 286 281 281 281 281 282 283 281 284 284 284 284 285 285 286 286 286 287 287 287 288 288 288 288 288 288 288 288 288 288 289 288 288 288 289
271 273 274 275 272 272 273 274 274 272 272 271 271 272 272 272 272 272 273 273 273 273 273 273 274 274 275 275 275 274 275 275 275 275 276 276 278 279 280 281 281 281 281 282 283 284 284 283 284 285 285 284 280 278 277 277 278 279 280 281 281 282 281 283 284 284 284 285 286 286 287 287 287 287 287 288 288 288 288 288 288 288 288 288 289 289 289
271 272 270 266 268 269 269 269 269 268 268 269 269 269 269 270 270 270 270 270 269 269 270 271 271 272 272 271 271 272 272 272 272 273 274 275 276 277 278 279 279 279 280 281 281 282 282 283 283 283 280 276 275 275 275 275 276 277 278 279 279 280 281 282 283 284 284 285 285 285 285 286 286 286 286 287 288 288 288 288 288 288 288 288 289 289 287
263 263 263 263 264 264 264 264 264 263 263 263 264 264 265 266 265 265 266 266 266 267 268 269 268 268 268 268 268 268 269 269 270 271 271 272 273 274 275 276 276 277 277 277 278 279 280 280 279 276 273 273 273 273 273 274 275 276 277 277 278 279 280 281 281 282 283 284 285 285 285 285 286 283 285 286 287 287 287 287 287 287 287 288 288 288 287
260 259 260 261 261 261 261 261 262 262 261 261 261 261 262 262 263 263 263 264 266 267 266 266 266 266 266 266 266 267 267 268 269 270 271 271 273 274 274 274 273 273 274 274 276 277 278 277 272 270 271 272 272 271 272 273 274 275 275 276 277 277 278 279 280 281 281 282 282 283 284 283 283 285 285 285 286 286 286 286 286 287 287 287 287 287 286
259 258 258 258 259 259 259 259 259 259 259 259 260 260 260 261 261 262 264 264 265 265 266 266 266 266 266 267 267 268 268 269 269 270 270 271 272 271 271 271 272 272 273 272 274 269 268 272 270 269 270 271 272 272 272 272 272 274 275 275 275 276 276 277 278 279 280 281 282 282 282 282 283 283 284 284 284 285 285 285 285 286 286 286 286 286 284
258 258 257 258 258 258 257 258 259 259 258 258 259 260 260 260 261 262 262 263 264 265 265 265 264 264 264 265 265 264 265 266 267 267 268 269 269 269 270 270 271 272 272 273 273 268 270 270 268 269 270 270 269 269 270 270 271 272 272 273 273 274 274 275 276 277 278 279 280 280 281 281 281 282 283 283 284 283 284 284 284 285 285 285 285 284 284
257 258 257 257 257 257 257 258 258 258 258 257 258 258 259 260 261 261 261 262 263 263 263 263 263 262 262 262 262 263 264 265 266 267 267 268 269 270 270 271 272 272 272 271 268 267 268 267 267 266 267 267 268 268 268 269 269 270 271 272 272 273 273 274 275 276 277 278 278 279 279 280 281 281 281 282 282 282 281 282 283 282 283 284 284 284 283
256 256 256 256 256 256 256 256 257 257 257 258 257 257 258 259 259 260 261 261 262 263 262 262 261 261 261 261 261 262 263 265 266 266 265 265 266 266 267 268 270 269 266 265 265 265 265 265 265 266 266 267 267 268 268 269 269 270 270 271 271 272 273 274 275 276 276 277 277 276 278 278 279 279 279 280 280 280 281 281 281 281 281 282 282 282 281
255 255 256 256 255 256 256 256 256 257 257 257 257 258 259 259 259 260 260 260 261 261 261 261 260 260 260 261 261 262 263 263 263 263 264 265 264 264 264 265 267 263 264 264 264 264 264 265 265 265 266 267 267 267 268 268 268 268 269 270 270 271 272 273 274 275 276 276 276 277 277 278 278 278 278 278 279 279 280 280 280 280 280 280 281 281 280
253 254 254 254 254 254 254 255 255 255 255 256 257 258 258 259 259 259 260 261 260 260 260 260 261 260 260 261 261 260 260 260 262 263 263 262 261 262 262 263 266 262 263 263 264 264 264 264 265 265 265 266 266 266 266 266 266 267 267 268 269 271 272 273 273 274 275 275 276 276 276 276 277 277 277 277 278 278 278 278 278 278 279 279 279 280 279
251 251 251 252 253 253 253 254 254 254 255 256 256 257 258 258 259 260 260 260 259 259 259 259 259 259 259 259 258 258 258 260 261 261 261 261 262 262 262 262 263 262 263 263 263 263 263 264 264 264 265 265 265 265 266 266 267 267 268 269 270 271 271 272 272 273 274 274 274 275 275 275 275 276 276 276 276 277 276 276 276 276 277 277 277 277 277
251 251 251 252 252 254 254 254 254 254 254 255 256 256 257 257 259 259 259 258 258 258 258 257 258 257 258 258 257 257 258 259 259 260 260 259 261 263 263 261 261 262 262 262 262 262 263 263 263 263 263 264 265 266 266 267 268 268 269 269 270 270 271 271 272 272 273 273 273 274 274 274 274 274 275 275 275 275 275 274 274 275 275 274 274 274 274
250 251 252 252 253 254 254 254 254 254 255 255 255 255 256 257 257 256 257 257 257 258 258 257 257 257 257 257 257 257 257 258 258 259 258 258 258 258 262 261 260 261 261 261 261 261 261 262 262 263 263 264 265 265 266 266 267 267 267 268 268 268 268 269 269 270 270 271 271 272 272 272 273 273 273 273 272 273 273 272 271 271 271 271 271 270 270
250 251 252 254 254 253 254 254 254 254 254 254 255 256 257 256 257 258 258 258 257 258 257 256 256 256 256 256 257 257 257 258 258 260 259 258 257 258 260 260 260 260 260 260 260 260 260 261 262 262 263 263 264 264 264 264 265 265 265 265 265 266 266 267 267 267 268 268 268 269 270 270 270 270 270 271 271 271 270 269 269 269 269 269 269 268 268
250 251 252 252 253 254 253 253 255 255 256 256 255 255 256 257 257 258 259 259 258 258 258 258 257 257 257 257 256 256 256 256 257 260 259 258 259 259 259 259 259 259 259 259 259 259 260 260 261 261 261 262 262 262 262 262 262 262 263 263 263 263 264 264 264 265 265 265 266 266 266 267 267 267 267 267 268 268 268 267 267 267 266 266 265 265 265
252 253 253 253 254 254 254 253 253 254 254 255 255 255 255 256 256 257 258 258 257 257 258 258 258 257 257 257 257 257 257 256 255 257 260 258 258 258 258 258 259 259 259 259 258 259 259 259 260 260 260 260 260 260 261 261 261 261 261 262 262 262 262 262 262 262 263 263 263 263 264 264 264 264 264 264 265 265 265 266 265 265 265 265 265 264 263
253 254 255 256 256 256 255 255 255 255 254 255 254 255 255 255 256 257 257 257 257 257 257 258 258 257 257 257 257 257 257 258 257 256 258 258 258 258 258 258 258 258 258 258 257 257 258 259 259 259 259 259 259 259 259 259 259 260 260 260 261 261 261 262 262 262 262 261 262 262 262 262 262 262 262 262 262 263 263 263 263 263 263 263 263 263 262
255 256 256 256 256 255 255 255 255 255 255 254 254 255 255 255 255 256 256 256 256 256 256 257 258 257 256 256 257 257 257 257 257 258 258 258 258 258 258 258 258 258 257 257 257 257 257 258 258 258 258 258 258 258 258 258 259 259 259 259 259 260 260 260 261 261 261 261 261 261 261 261 261 261 261 261 261 261 261 261 261 261 261 261 261 261 261
256 256 256 256 256 256 255 255 255 255 254 254 254 254 255 255 255 255 256 256 255 255 255 255 256 257 257 256 256 257 257 257 257 257 257 257 258 258 258 257 257 257 257 257 256 256 257 257 257 257 257 257 258 258 258 258 258 258 258 258 258 259 259 259 259 259 260 260 260 260 260 261 261 261 261 260 260 260 260 260 260 260 260 260 260 260 260
255 255 256 256 255 255 255 256 255 254 254 253 253 254 254 255 254 254 255 255 255 254 254 254 254 257 257 256 256 256 256 257 257 257 257 257 257 257 257 257 257 257 256 256 256 256 256 256 256 257 257 257 257 257 257 257 257 257 257 257 257 258 258 258 258 258 259 259 259 259 259 259 259 259 259 259 259 259 259 259 259 260 260 260 260 260 260
Wind_Speed
15 14 11 10 7 9 9 11 11 14 11 9 11 9 9 5 9 7 6 3 8 16 16 8 9 9 10 11 14 16 12 7 3 4 8 9 7 4 5 7 10 8 5 6 8 8 9 9 10 11 6 3 2 4 3 2 2 4 3 3 5 5 5 7 8 5 4 4 5 6 6 7 8 9 9 9 10 10 9 10 10 11 12 11 11 11 11
16 17 16 7 10 9 11 15 16 15 18 19 18 18 19 14 8 7 8 11 16 19 21 18 16 11 14 16 15 10 4 7 7 7 7 7 3 5 6 8 9 11 12 10 9 8 8 9 8 7 9 11 9 6 6 2 3 2 2 3 5 5 6 7 6 5 5 5 5 6 7 8 8 7 7 8 9 9 10 10 11 10 10 10 10 11 12
14 13 10 8 11 11 12 10 9 11 12 15 16 14 13 14 16 15 16 13 16 17 17 18 11 7 9 12 8 7 6 6 8 7 6 3 5 7 9 9 10 12 14 15 11 8 8 7 7 7 7 7 9 10 6 5 3 0 2 3 5 6 7 6 5 5 5 6 5 7 8 7 7 7 8 8 9 10 10 10 10 10 9 10 11 11 11
10 9 11 8 9 11 12 10 6 5 10 12 10 14 15 16 17 15 12 10 12 20 16 8 13 15 18 15 7 6 10 9 7 7 7 6 8 10 11 11 11 12 13 13 13 12 10 7 4 6 8 8 8 10 8 6 4 1 2 4 5 6 6 6 6 6 6 6 6 7 6 7 6 6 6 7 9 10 10 10 10 6 9 12 11 10 10
12 8 11 9 5 1 9 13 10 11 12 12 12 13 12 15 12 11 12 16 17 14 1 9 18 17 15 11 8 11 14 13 11 12 12 11 9 8 11 11 12 11 12 11 11 11 8 9 7 5 6 7 9 8 7 5 3 3 4 5 5 6 6 5 5 4 4 4 5 5 6 7 3 5 6 8 10 10 12 10 7 9 11 10 11 10 10
7 7 7 8 5 14 10 7 17 18 17 16 15 13 15 14 14 11 11 13 11 11 13 15 18 14 12 11 9 10 11 10 8 8 8 7 8 9 10 11 11 12 11 8 9 9 8 7 5 5 4 5 5 6 7 6 5 6 5 6 6 6 5 5 5 4 4 4 6 7 5 5 4 5 7 9 10 9 9 8 10 10 10 11 11 11 12
7 5 9 7 15 9 4 12 15 20 21 19 18 15 15 13 14 14 15 16 17 17 13 13 17 18 14 8 9 8 6 4 3 5 6 7 9 10 11 13 12 8 7 9 8 8 8 7 7 5 4 2 3 5 4 5 5 6 6 7 7 6 6 6 5 5 5 6 7 7 6 5 5 7 8 9 10 9 9 10 11 11 10 10 11 11 11
3 4 9 11 2 5 1 1 5 4 14 17 16 18 20 20 18 18 18 19 18 17 16 17 17 19 9 7 8 9 4 6 5 8 7 8 11 13 8 4 6 6 5 6 6 7 6 6 6 4 4 2 2 5 3 4 5 5 6 7 7 6 6 6 5 5 5 6 7 6 6 7 7 9 9 10 10 8 8 9 9 8 9 9 11 11 10
10 8 11 9 5 6 6 3 5 9 11 13 16 13 16 19 18 16 16 18 20 20 21 20 19 17 13 9 10 8 10 11 12 13 11 6 3 6 6 5 5 5 5 4 5 5 5 5 5 4 2 1 3 4 6 5 5 5 4 6 8 7 7 6 6 5 6 6 7 7 6 7 8 9 9 10 7 6 9 9 9 10 10 9 9 9 10
7 12 10 8 5 9 7 12 9 7 5 9 10 11 11 9 13 15 18 20 22 23 21 20 17 11 6 10 12 3 4 4 3 4 5 3 2 4 5 5 4 4 3 4 4 4 6 7 5 4 4 5 5 5 6 6 7 7 6 7 7 8 8 7 6 5 5 6 7 7 6 8 8 8 7 7 6 5 9 9 10 10 7 8 8 9 10
9 11 12 8 8 8 12 15 11 5 3 5 4 4 12 11 13 15 18 20 20 19 17 17 12 7 6 11 8 3 4 3 1 1 3 4 2 1 3 4 5 6 6 6 7 7 6 8 9 7 6 6 6 6 5 6 6 6 7 7 7 8 9 8 8 7 6 6 7 8 9 11 8 8 7 6 5 5 7 8 9 6 5 7 7 6 8
10 10 11 11 5 7 11 10 5 8 7 9 7 11 8 10 22 15 12 14 15 17 17 14 10 8 8 11 1 1 2 3 1 1 3 5 6 5 5 2 3 4 4 7 8 8 9 9 9 9 6 6 7 7 6 6 7 7 7 8 7 7 7 8 8 7 6 5 9 6 8 8 7 7 4 4 6 6 6 6 6 6 7 7 9 9 7
13 14 7 4 5 6 7 6 6 8 10 11 9 15 12 3 3 10 15 18 17 10 3 3 8 7 4 2 4 3 4 3 3 2 2 2 2 5 5 7 6 4 4 3 4 7 7 7 7 7 8 6 6 6 6 7 8 8 8 7 7 8 8 8 8 8 7 7 8 8 7 8 7 5 4 5 5 6 6 6 6 7 8 8 9 10 8
13 11 10 6 7 7 5 3 11 10 8 9 15 10 3 6 2 1 4 4 4 5 6 4 4 2 3 1 2 4 2 0 2 1 2 1 2 2 3 5 6 4 4 5 5 7 8 7 7 7 7 7 7 6 6 9 10 8 8 8 8 7 8 8 8 9 7 7 6 7 7 6 7 8 5 5 6 5 5 5 8 10 8 8 9 9 8
3 2 5 4 8 10 15 15 4 6 8 11 4 5 4 3 7 7 6 5 5 5 4 2 3 2 1 0 1 1 2 1 1 2 2 2 3 5 5 6 5 3 4 6 7 8 8 7 7 7 5 7 8 6 7 12 10 8 8 8 8 8 8 9 7 7 7 8 8 6 7 7 8 10 5 5 6 6 6 7 8 10 9 8 9 9 9
8 12 9 9 9 4 16 15 11 11 12 3 3 5 5 1 2 5 6 3 4 3 5 3 2 1 1 2 2 1 1 1 1 1 2 2 2 3 4 5 7 5 5 5 7 7 7 7 7 6 7 9 7 6 11 12 10 10 9 8 8 10 8 8 8 8 8 8 7 7 7 6 7 8 7 5 5 6 6 8 9 8 8 7 7 10 11
8 9 10 11 2 13 15 15 9 10 5 5 4 7 6 7 3 1 4 4 2 3 3 2 2 1 3 0 2 2 3 3 2 2 3 4 5 5 5 5 7 6 7 9 8 8 7 8 7 8 7 9 8 7 9 9 10 11 11 8 8 9 10 9 9 9 9 8 8 7 6 5 6 5 7 5 6 6 6 8 8 9 9 7 9 10 8
9 8 5 4 1 4 7 3 3 5 5 4 4 8 6 3 4 3 5 3 4 2 1 2 1 1 1 2 2 2 3 5 5 3 3 4 5 5 4 5 5 6 7 8 9 11 8 4 7 6 7 7 8 11 7 8 10 10 9 10 11 12 11 10 10 9 10 10 8 7 7 5 6 5 5 5 6 5 6 8 8 9 9 8 8 8 9
9 8 13 16 16 8 6 9 3 3 3 4 4 6 5 5 4 4 3 3 2 2 3 1 0 1 1 2 3 4 5 6 8 9 8 5 4 6 8 7 6 7 5 8 10 10 14 6 5 7 5 5 9 9 9 9 7 9 10 10 12 12 11 11 11 8 9 8 6 7 5 4 5 5 5 6 6 7 7 7 8 9 10 9 9 10 10
12 11 10 8 8 9 7 4 6 4 4 4 3 2 3 5 4 3 3 1 2 3 2 4 3 3 2 2 3 5 6 7 6 6 8 9 7 6 6 8 7 7 8 8 12 12 13 11 7 9 8 5 6 5 5 6 7 8 9 10 11 13 13 11 10 10 9 12 11 7 5 4 5 5 6 6 8 9 8 8 7 10 10 10 11 10 9
10 8 2 4 4 5 5 2 2 1 5 5 3 4 4 4 5 3 2 3 2 5 2 3 4 4 5 4 5 6 6 6 5 6 8 9 8 8 10 9 5 9 8 9 11 11 14 11 8 7 8 7 4 4 5 5 6 8 10 11 11 12 11 9 10 8 7 10 7 6 6 4 5 6 6 6 8 9 11 8 9 8 6 9 10 7 7
8 10 7 11 3 3 5 6 5 3 2 5 8 7 5 4 4 2 1 2 4 3 3 3 3 6 4 3 4 7 6 7 7 7 7 9 12 13 9 8 6 7 7 8 11 14 15 12 9 9 11 8 4 2 4 5 6 8 10 11 12 12 9 9 9 8 6 5 5 6 6 6 6 7 12 15 13 9 8 11 17 17 14 11 7 5 8
8 6 5 2 5 7 4 6 5 5 4 5 6 5 4 3 2 3 3 4 4 5 5 6 5 6 6 6 5 8 7 6 7 7 9 11 11 11 10 6 7 7 11 10 10 12 14 12 10 10 11 11 6 4 5 5 6 8 9 10 11 11 10 9 9 7 7 7 6 5 5 5 7 7 8 9 17 21 20 15 13 17 19 21 18 14 8
5 3 5 4 3 5 5 4 2 3 3 3 1 2 2 2 2 4 5 4 6 6 3 4 6 7 7 6 6 10 10 8 8 9 10 11 12 12 9 8 8 8 10 11 11 13 13 10 9 10 12 12 5 4 5 6 6 8 9 8 9 11 11 10 11 11 6 8 7 6 7 5 6 7 8 9 8 13 19 20 20 20 18 19 19 19 19
3 4 4 4 4 1 2 3 4 1 2 3 3 4 6 2 2 4 5 5 2 5 6 4 4 5 7 7 7 9 11 11 9 9 11 12 12 11 11 8 8 10 13 12 12 12 11 9 10 11 12 14 6 5 7 7 7 10 10 9 11 13 12 12 10 12 7 6 7 6 8 7 6 5 7 7 9 8 6 16 20 20 21 20 19 19 20
5 3 3 3 1 1 1 2 3 3 4 2 2 5 3 1 3 3 5 6 6 4 6 7 7 6 6 9 8 9 11 13 10 10 9 10 10 10 10 8 12 12 12 12 12 12 10 11 12 12 13 14 7 6 8 8 8 10 11 10 11 11 11 11 10 10 8 8 7 7 7 7 7 7 7 7 8 7 7 5 6 11 16 20 19 19 21
4 3 1 3 4 3 6 4 1 8 4 4 2 1 2 4 6 6 6 6 5 6 7 9 8 8 7 9 10 9 9 14 11 9 10 12 12 10 10 10 12 13 11 11 11 10 10 10 10 12 15 15 6 6 9 9 10 10 10 10 10 13 17 13 7 9 9 8 8 8 8 7 7 7 8 7 7 7 7 7 7 9 6 7 14 19 17
2 2 1 4 7 3 4 3 2 4 2 4 4 6 5 4 6 7 9 7 5 4 7 6 8 7 9 8 5 12 10 10 13 12 10 11 11 11 10 8 11 9 10 10 10 8 7 9 11 14 18 14 6 9 10 9 10 11 11 10 11 10 10 11 9 8 8 9 8 9 9 8 7 7 8 8 9 8 7 8 9 8 9 7 5 9 19
2 2 1 2 4 4 0 4 5 2 0 2 3 3 3 4 7 9 10 8 6 7 9 7 5 7 9 9 7 11 11 11 13 16 13 11 12 10 7 5 5 6 8 9 9 7 8 10 13 15 18 14 9 11 11 11 11 11 11 10 9 9 9 10 9 8 9 9 9 9 10 10 8 8 8 8 9 8 8 8 9 9 8 7 4 6 8
1 2 3 3 4 4 4 5 5 3 2 2 5 5 5 7 9 10 10 9 7 9 9 8 7 6 7 8 7 6 11 12 13 12 13 11 8 4 4 4 6 8 10 12 12 9 9 12 14 17 18 12 9 11 10 9 10 11 11 13 11 11 10 11 10 11 11 11 11 12 10 8 8 9 9 9 9 8 9 8 8 9 9 8 7 9 9
1 2 2 2 2 2 5 8 4 3 4 4 5 6 3 2 8 11 9 6 6 7 6 6 7 8 8 8 8 8 9 11 11 11 11 11 8 6 6 4 7 10 11 13 13 12 13 16 16 17 14 11 11 8 6 6 6 9 10 11 12 17 19 19 15 11 11 11 11 9 9 8 8 8 9 9 9 10 11 10 9 10 9 8 8 9 8
5 5 4 5 4 4 6 6 4 1 2 4 6 5 4 3 6 10 9 7 7 8 10 11 11 11 10 10 11 13 14 14 14 16 16 12 9 7 7 9 12 15 17 17 15 13 13 15 18 16 11 11 9 4 4 6 6 8 9 11 11 10 12 15 11 11 10 10 10 10 10 10 9 9 9 10 11 11 11 11 11 9 7 9 10 9 6
4 10 12 5 3 4 7 5 2 2 1 3 5 6 7 6 8 10 11 9 10 9 9 10 10 11 11 12 12 13 14 15 16 18 18 17 15 13 11 11 13 15 17 17 16 14 14 16 17 14 12 8 6 6 6 7 8 7 8 7 9 11 12 12 12 11 11 11 10 11 10 10 10 9 10 9 10 10 11 12 10 9 9 10 10 8 6
4 6 2 1 2 6 7 10 5 8 4 2 4 5 6 6 5 8 9 9 10 12 11 11 12 11 11 12 13 13 13 14 15 15 16 16 15 13 12 13 15 17 18 18 17 13 12 13 13 13 8 6 8 7 7 6 6 8 8 9 9 11 11 10 10 10 10 10 10 11 11 11 11 10 10 9 9 10 11 11 10 9 9 10 8 7 7
2 2 2 2 2 4 5 6 7 7 8 7 4 5 6 6 7 9 10 10 11 11 11 12 12 12 13 13 14 14 14 15 17 19 19 18 16 15 14 15 16 16 18 18 16 15 14 13 12 10 8 7 8 7 7 8 8 9 10 11 12 11 11 10 10 10 11 11 10 10 10 10 10 10 10 10 10 10 10 10 10 10 9 9 8 7 7
3 3 2 2 3 4 5 6 6 8 8 9 7 7 10 9 10 10 11 11 10 11 12 12 12 12 13 13 13 14 14 14 15 17 19 19 16 14 14 16 17 18 19 21 18 15 15 11 7 7 6 8 8 7 7 8 9 10 11 11 11 11 11 11 11 10 10 10 11 10 11 11 11 10 9 9 10 10 11 12 10 9 9 10 9 8 7
2 2 3 3 4 4 5 5 6 7 8 8 9 9 11 12 12 12 11 11 11 11 11 12 12 13 13 13 13 14 14 14 14 15 16 16 15 16 17 18 18 18 18 19 11 3 2 5 7 11 10 8 8 10 12 12 10 10 10 10 10 10 11 11 10 10 10 10 10 10 10 10 11 11 9 10 11 11 10 11 10 10 9 10 9 8 7
3 2 3 4 4 5 5 5 5 7 9 11 10 9 11 12 11 11 11 11 11 11 11 11 12 14 14 14 14 16 17 15 16 17 18 18 17 17 18 16 15 13 13 13 6 4 5 8 12 13 12 9 8 8 9 12 14 11 10 10 10 11 11 11 11 10 10 10 9 10 10 10 10 10 10 10 10 10 9 8 8 8 9 10 9 8 8
6 4 3 4 4 5 7 6 6 7 8 11 12 10 10 11 12 12 12 12 11 11 11 11 11 13 14 15 15 15 14 14 15 17 17 17 16 16 16 14 11 10 12 11 11 8 6 8 7 8 9 10 11 11 11 14 15 11 10 10 11 11 11 11 11 11 10 10 10 10 10 10 10 10 10 9 9 9 8 9 9 7 7 8 10 10 9
5 5 6 6 5 6 6 7 7 8 8 8 9 11 10 10 10 10 11 11 11 10 10 9 11 12 13 13 14 14 13 13 13 14 16 16 17 17 16 15 15 9 7 9 8 7 9 12 10 8 8 9 9 9 10 11 11 10 10 10 10 11 11 11 10 10 10 10 10 9 9 9 10 10 9 9 9 7 5 6 7 7 8 8 9 9 7
5 5 5 5 6 6 7 7 8 8 9 9 9 9 9 9 11 11 11 12 10 7 8 10 11 12 12 13 14 14 13 13 13 16 15 12 12 12 12 14 3 4 7 7 8 10 11 10 9 9 8 8 8 9 9 11 10 9 10 10 10 10 10 10 9 9 9 9 8 8 8 8 9 10 8 8 8 7 8 8 8 7 8 7 8 8 7
7 5 6 7 7 7 8 8 8 9 9 9 10 9 10 10 10 12 12 10 9 8 8 9 12 13 13 12 11 11 12 13 13 13 11 10 9 10 11 11 5 5 11 13 12 11 9 9 9 8 9 9 9 12 13 11 9 9 9 10 10 10 10 10 9 9 8 8 9 8 8 8 8 8 8 7 8 6 6 7 7 6 6 6 6 8 8
5 6 7 7 7 7 7 8 7 9 10 10 9 9 9 9 9 10 9 7 7 8 8 8 9 11 11 10 10 11 11 11 11 11 10 9 10 11 11 9 8 8 14 11 11 9 8 8 8 8 10 12 11 16 18 11 8 8 9 9 10 10 10 9 9 9 8 8 8 8 8 8 7 7 7 7 7 7 6 6 6 6 7 6 6 6 6
7 5 6 7 8 8 7 6 7 7 8 10 7 7 8 9 10 10 7 6 7 8 7 8 8 8 9 8 8 8 8 8 8 7 7 8 8 6 4 4 8 11 15 10 9 9 8 8 8 11 17 19 18 17 10 8 7 7 8 8 9 9 9 9 8 8 8 7 7 7 7 5 6 6 6 6 6 6 6 5 5 5 4 3 3 2 2
8 8 8 9 10 8 6 5 6 8 7 7 7 8 9 9 7 7 6 7 7 7 6 6 7 7 6 6 7 7 8 8 8 6 5 7 10 8 5 9 10 9 10 14 10 9 8 8 12 18 16 17 15 13 7 5 6 6 6 6 7 6 6 6 6 6 6 6 6 6 4 5 5 4 4 4 5 5 5 5 2 1 2 2 2 2 2
8 9 9 9 8 8 7 5 5 5 7 7 7 5 3 5 7 6 5 6 6 6 4 4 4 5 6 7 8 8 8 6 6 5 1 2 5 9 10 11 9 9 15 15 8 8 7 14 17 16 16 15 14 7 5 5 4 4 5 5 5 6 5 5 5 5 5 5 5 5 5 4 3 3 3 3 2 2 1 0 0 2 2 2 3 4 4
8 8 8 8 8 7 7 5 5 6 6 5 5 4 3 6 7 6 5 7 8 8 6 5 4 6 6 7 6 7 8 8 7 3 0 4 7 8 10 12 11 13 11 8 8 7 8 10 12 15 15 15 13 6 6 5 5 4 4 4 4 4 5 5 5 5 5 5 6 6 6 6 6 5 5 4 4 3 2 2 2 3 3 4 5 6 7
7 7 7 7 7 7 4 3 4 3 4 4 5 6 6 7 8 7 6 5 6 8 5 4 4 6 7 8 6 5 4 4 7 5 2 5 6 7 7 6 8 11 12 9 10 9 14 16 16 16 16 14 8 7 7 7 6 5 5 5 4 4 4 4 5 5 5 6 7 7 7 7 7 7 6 6 6 5 5 4 3 3 3 4 6 6 7
6 8 8 6 3 5 4 3 3 3 3 5 6 5 6 8 8 6 4 5 7 6 5 5 6 5 6 6 6 4 4 3 3 5 7 7 7 7 7 8 10 10 8 6 7 7 10 14 13 14 13 10 6 6 6 6 6 6 5 5 5 5 5 5 5 6 6 7 7 7 7 7 7 6 7 7 7 7 7 7 7 6 5 5 6 6 6
5 4 3 2 2 2 3 2 2 3 4 4 4 5 5 5 4 4 4 4 4 5 4 4 4 4 5 5 5 4 4 5 5 6 7 7 7 7 7 7 7 8 8 6 6 6 8 12 11 11 10 7 7 7 7 7 7 7 7 8 7 6 8 8 7 9 7 6 6 6 6 6 7 8 8 7 7 7 7 7 7 9 13 9 7 7 7
3 3 3 3 3 3 3 3 2 2 3 3 4 5 4 3 3 4 4 4 4 4 4 4 4 3 4 5 4 4 5 5 5 6 5 5 5 6 7 6 6 6 7 6 6 7 7 7 8 9 8 8 7 7 7 8 7 8 8 7 8 7 8 8 7 7 7 7 6 6 6 6 6 7 7 6 7 7 8 8 8 8 8 8 8 8 7
5 4 4 3 2 3 3 2 1 1 2 3 3 4 4 4 4 4 3 3 3 4 4 5 5 3 3 5 5 5 5 5 5 5 5 5 6 5 6 7 5 6 7 6 6 7 7 7 7 9 9 7 6 7 7 9 8 7 8 8 8 8 8 8 8 7 7 7 7 7 7 7 6 7 7 7 7 7 7 7 7 7 7 6 7 7 7
Wind_Direction
226 238 227 143 145 155 187 193 175 182 189 196 225 239 238 196 210 221 126 77 229 252 262 274 283 301 291 273 269 263 266 283 283 269 256 258 268 334 323 309 313 309 293 286 289 302 311 311 305 308 300 267 242 267 254 278 258 244 235 236 250 246 240 244 248 257 273 272 266 263 255 252 247 245 245 246 247 241 237 238 234 236 235 230 225 222 223
220 223 230 172 188 189 191 208 205 190 193 202 202 213 221 216 229 256 263 262 263 269 277 278 279 272 267 267 263 271 294 273 256 239 243 251 303 310 304 301 302 307 307 303 294 283 275 277 284 304 324 324 325 318 313 315 256 236 205 231 247 249 243 245 248 250 256 250 247 250 251 245 242 243 245 246 245 241 238 237 239 237 238 235 229 226 225
224 221 220 211 221 217 215 208 207 191 187 197 202 207 210 211 225 231 240 257 274 272 260 259 255 246 246 251 243 259 258 226 227 232 246 284 291 296 300 306 311 306 302 302 294 266 259 268 287 299 303 298 304 309 296 296 299 82 190 238 234 240 252 255 261 260 254 252 242 247 245 248 247 240 242 244 244 245 243 241 238 237 235 236 233 231 229
229 213 201 181 217 233 239 223 137 148 180 206 205 215 210 206 214 217 220 225 241 256 260 273 254 241 240 241 213 230 248 229 220 244 260 273 286 292 294 290 287 285 286 286 289 295 309 326 303 298 292 287 296 292 301 310 332 31 219 238 242 243 242 246 240 234 234 237 236 244 240 245 243 249 252 248 247 243 243 238 236 231 231 231 235 233 232
229 210 187 170 152 47 247 228 198 180 198 202 208 221 215 212 198 212 208 225 224 239 212 255 260 245 247 249 217 229 242 250 252 257 258 261 267 268 268 272 274 274 272 275 285 309 341 348 333 280 260 279 283 293 311 324 338 259 242 241 249 251 247 243 250 238 246 261 267 267 268 273 255 260 254 253 250 248 243 239 231 226 231 230 233 231 228
223 217 137 150 159 229 232 139 199 203 208 203 214 214 217 216 196 222 221 235 240 239 236 235 258 270 246 243 246 233 246 254 235 228 245 246 246 252 253 254 259 264 267 292 325 343 336 318 291 287 267 274 295 317 312 318 292 275 264 250 234 248 254 256 259 272 277 273 273 269 266 267 261 253 251 248 251 251 256 248 234 234 231 230 232 228 227
220 126 126 186 223 223 91 180 200 202 217 222 224 234 229 219 210 223 233 236 238 239 239 243 255 260 262 252 248 230 207 225 221 230 227 228 231 236 239 242 248 274 325 336 324 323 326 320 311 314 319 349 311 286 271 272 268 276 268 267 261 252 251 255 255 259 260 252 256 262 262 257 252 252 248 254 251 248 242 241 240 237 232 230 231 231 231
194 173 180 227 247 139 136 145 34 204 214 219 226 237 237 232 221 210 225 237 243 249 248 248 250 259 260 111 243 251 184 172 207 228 227 229 226 234 250 359 359 333 312 311 314 307 302 304 305 312 328 7 264 269 231 243 265 256 268 271 273 271 270 262 255 247 238 244 246 248 248 259 245 250 246 244 247 248 247 247 244 248 246 236 235 231 231
213 197 206 219 5 322 273 226 195 167 181 194 204 228 232 230 231 226 228 232 238 240 245 246 249 256 272 275 272 233 173 188 205 215 222 233 329 349 336 320 305 324 336 320 302 293 292 298 301 315 357 296 301 321 328 325 294 289 286 287 288 284 278 280 273 259 243 242 245 243 238 233 235 245 248 248 236 228 243 244 245 241 242 240 243 239 235
200 218 229 225 204 235 218 219 211 197 198 189 197 217 249 222 222 221 224 228 233 239 242 246 250 261 297 275 276 291 160 214 270 12 21 12 333 348 353 354 343 341 332 313 293 311 316 306 310 341 9 359 348 337 326 320 321 315 316 298 296 299 298 298 291 278 259 253 253 247 235 231 232 240 247 254 244 216 224 240 242 246 252 254 245 237 234
195 216 231 218 210 225 217 226 212 148 149 166 144 197 245 235 237 212 216 223 229 235 239 244 248 240 245 254 259 43 40 116 125 180 60 42 48 351 4 355 342 338 347 342 318 323 321 319 325 345 0 356 344 325 319 312 307 302 297 292 297 304 306 305 300 292 283 268 259 255 254 247 246 252 244 237 232 221 226 228 242 249 244 250 253 244 240
205 201 210 225 202 231 232 227 184 159 147 143 118 237 239 209 230 214 207 220 226 230 232 237 241 225 233 245 213 280 135 170 166 37 20 21 9 8 356 350 34 332 332 348 337 329 320 314 319 324 348 347 328 312 309 305 299 291 285 286 294 294 289 287 288 287 277 265 263 261 261 263 256 247 236 232 225 221 225 222 233 232 238 240 247 249 243
210 203 226 253 260 256 237 159 133 141 153 156 204 229 234 219 102 174 201 213 221 227 215 166 229 222 223 87 138 262 340 0 93 114 77 33 5 333 331 328 341 341 336 335 295 294 297 300 310 315 334 332 311 308 306 301 286 282 286 290 288 288 286 286 285 281 276 259 270 268 259 261 261 251 233 227 223 220 223 225 225 230 228 234 240 249 245
210 208 221 232 266 262 189 138 152 156 135 203 216 224 52 120 127 4 227 192 103 146 179 175 210 155 126 146 139 148 159 206 328 57 97 35 273 236 251 290 313 312 316 295 280 274 272 289 295 303 310 306 294 306 307 285 279 285 291 291 289 285 280 277 278 281 283 281 266 265 268 264 263 260 245 228 233 224 226 226 228 234 230 230 235 243 242
64 152 190 198 244 237 171 109 66 242 214 225 183 100 34 49 131 105 74 110 122 112 123 124 126 113 66 138 258 91 143 175 12 7 360 7 313 324 333 314 291 282 291 282 272 274 285 285 287 285 298 291 284 284 279 279 292 298 295 293 289 284 282 281 278 275 273 273 272 265 261 252 254 262 253 235 231 227 226 231 234 239 236 234 237 242 243
181 182 187 203 212 78 123 151 192 191 217 37 98 128 130 282 114 118 122 143 155 157 112 157 176 202 175 294 264 319 320 182 182 255 272 227 222 244 246 254 276 288 267 253 264 259 272 276 276 275 274 278 278 278 269 282 294 295 293 288 292 294 290 285 285 281 277 273 267 263 259 255 249 255 251 235 236 228 222 229 238 238 236 227 233 241 243
193 194 206 221 115 158 183 195 203 176 126 65 91 105 110 134 116 104 114 123 142 160 120 145 139 147 192 336 28 312 294 304 286 259 276 296 288 272 267 280 283 278 284 297 290 277 263 265 264 268 254 266 274 270 267 285 292 296 297 297 295 290 290 289 288 287 288 282 277 269 260 248 252 244 251 231 241 235 225 230 231 238 240 224 231 238 240
212 260 253 254 347 236 212 46 83 106 115 89 63 98 101 73 133 142 120 155 131 172 138 126 19 215 10 21 291 271 269 268 267 235 226 256 273 271 265 265 274 278 283 282 287 290 283 236 259 255 259 252 270 269 279 291 288 292 294 297 294 290 292 292 289 289 291 288 276 265 260 243 241 234 238 229 228 232 221 235 232 229 236 227 234 236 243
172 235 223 229 228 200 208 207 105 34 92 134 131 114 107 144 123 122 107 143 143 109 151 169 287 337 205 265 276 287 299 297 303 313 309 290 271 294 301 297 302 296 283 289 294 294 296 291 268 274 262 254 256 276 283 282 286 287 292 290 288 289 292 295 295 292 287 287 288 279 253 246 237 237 227 232 229 231 225 228 233 236 233 228 231 235 235
191 215 219 231 226 205 195 191 172 165 145 142 196 106 90 101 115 105 123 141 133 157 150 178 165 230 199 211 264 278 280 286 300 307 298 299 300 276 277 290 298 298 303 299 299 302 296 298 302 291 288 277 271 270 271 270 273 280 280 279 282 287 290 293 293 294 288 282 280 276 260 238 245 234 225 218 228 227 216 213 218 231 229 232 231 226 232
218 250 128 169 115 154 181 195 331 150 154 166 121 95 104 125 124 128 160 228 152 175 200 177 202 223 220 216 248 263 272 279 280 277 280 281 279 289 301 295 278 282 296 299 290 289 288 294 297 290 288 287 278 262 262 259 262 270 277 281 278 278 280 280 279 279 273 279 276 276 272 251 227 226 230 224 226 242 233 226 220 224 221 229 233 230 230
217 213 202 127 192 201 146 185 187 186 104 106 124 134 110 96 97 129 177 212 235 225 234 217 218 246 259 224 244 257 256 268 278 275 272 274 284 290 290 288 284 281 274 276 287 290 294 302 302 293 292 291 292 264 271 274 273 277 285 291 293 290 288 284 282 279 272 268 265 263 261 268 265 257 232 228 236 236 252 221 229 231 229 239 230 212 230
210 103 72 27 84 73 68 102 95 81 72 69 54 62 96 141 161 184 206 252 235 217 221 217 239 250 260 267 252 261 256 246 248 259 272 281 282 281 288 293 288 280 281 281 278 280 282 292 294 294 293 294 303 290 273 278 278 280 286 291 290 291 293 290 288 284 285 283 278 269 262 259 264 266 278 233 226 236 243 250 238 233 234 240 244 245 241
56 91 94 85 92 114 143 145 136 85 129 65 349 199 182 118 174 225 246 249 281 289 256 209 208 238 245 242 235 254 262 250 243 246 250 258 267 277 280 263 271 278 276 276 276 277 282 283 285 287 287 286 294 295 283 278 275 277 280 281 283 288 291 290 289 282 268 277 278 271 271 255 253 263 264 278 268 217 226 237 241 243 240 237 238 237 240
133 151 124 82 107 79 4 313 317 313 175 195 266 10 56 67 283 277 295 300 241 270 285 261 220 218 251 246 239 253 264 267 256 259 262 260 265 269 273 275 268 264 265 267 270 275 280 283 283 284 284 285 300 306 291 286 279 280 278 274 279 285 288 288 284 280 271 265 268 269 275 268 258 245 255 262 271 289 212 221 232 236 240 241 238 236 236
112 123 112 99 81 216 126 351 274 222 248 270 45 79 95 42 295 269 261 269 279 268 274 279 280 256 244 263 251 253 267 269 276 273 263 264 265 263 260 252 258 263 270 270 267 270 277 279 279 280 281 282 301 299 289 286 277 272 275 272 269 275 284 288 287 285 278 272 269 269 263 266 265 262 255 246 262 262 280 286 246 238 240 241 239 237 237
118 152 29 270 228 166 151 195 293 74 42 60 70 152 169 278 278 268 277 277 279 288 281 280 278 279 271 267 276 265 261 276 280 269 265 272 271 267 266 264 262 261 263 269 274 272 271 275 278 279 280 284 303 289 286 285 280 277 274 274 275 274 272 274 270 273 273 270 268 267 270 263 263 256 253 253 249 254 253 255 260 264 265 232 229 230 236
108 131 166 245 275 32 87 299 353 100 45 342 318 313 311 303 293 295 292 289 283 272 266 265 273 275 271 262 261 277 272 270 274 270 266 263 267 272 269 261 261 261 264 263 266 272 276 280 282 283 282 286 306 288 286 284 281 279 280 279 280 279 283 280 274 267 266 268 263 264 266 262 260 256 261 262 255 253 253 252 256 261 263 244 234 217 226
99 105 227 286 19 53 360 294 308 349 49 281 295 281 298 294 291 286 285 281 293 292 281 286 275 267 270 280 276 277 278 277 277 280 277 272 277 281 281 277 272 275 271 273 274 275 275 274 277 281 282 293 307 293 291 292 288 288 288 288 285 281 280 280 279 272 274 272 269 266 267 269 267 267 261 253 254 256 254 250 253 257 258 268 256 252 226
22 54 38 26 36 24 357 297 285 312 360 272 280 267 262 280 285 277 278 292 302 290 292 310 318 317 326 311 302 297 295 294 297 303 303 311 325 342 332 308 301 284 276 271 271 275 280 283 283 282 283 296 295 288 292 290 288 290 288 288 286 281 282 283 283 277 274 270 268 268 263 256 257 259 260 258 255 250 253 252 251 255 259 258 251 256 255
354 10 351 324 312 303 276 274 274 277 283 283 281 293 300 285 286 291 301 339 347 316 333 338 322 313 314 308 312 308 302 299 298 298 294 295 297 298 295 298 287 283 278 280 285 288 286 283 280 277 285 294 288 287 289 285 286 290 286 283 281 274 272 275 272 269 272 275 274 272 263 259 255 251 252 258 258 258 258 256 252 251 253 255 250 248 244
338 308 301 291 286 279 272 271 291 315 71 30 2 326 358 8 297 293 298 303 293 297 297 297 297 297 298 299 300 302 301 298 295 289 287 286 284 284 284 280 275 273 277 279 278 278 278 277 275 277 288 287 289 304 295 286 284 279 276 282 280 279 273 271 272 267 263 262 267 269 267 266 264 258 259 256 257 258 257 256 254 249 243 246 250 245 229
323 304 291 296 337 315 289 294 338 314 111 290 287 292 295 290 285 283 288 301 309 305 304 298 300 301 303 304 301 299 298 297 292 287 285 285 283 281 279 277 275 277 278 279 281 282 276 276 278 286 287 293 305 303 289 283 281 273 275 273 273 274 277 276 269 273 270 267 265 263 266 262 263 262 259 259 260 259 259 257 256 255 251 251 250 247 216
235 252 7 82 218 279 296 298 323 304 289 245 274 284 287 286 292 296 303 312 306 302 297 299 302 306 307 303 300 297 298 298 289 286 287 289 292 295 294 288 283 282 280 281 282 279 277 276 283 287 298 303 292 291 284 276 269 272 270 273 272 273 274 274 273 265 265 263 261 263 260 260 259 257 257 256 259 260 260 260 257 256 256 255 248 244 214
34 343 9 298 308 283 290 288 305 306 308 305 314 310 294 297 302 294 297 299 295 297 302 303 304 303 300 297 293 290 286 278 280 285 288 289 291 294 292 287 284 284 283 279 279 280 281 283 283 288 292 284 281 279 280 275 270 273 273 270 270 270 270 271 269 265 263 265 266 264 261 259 258 255 252 254 257 258 260 258 259 258 258 257 259 249 222
18 352 345 324 322 313 308 302 303 304 303 301 306 308 302 301 300 298 299 293 295 297 295 294 291 290 284 282 282 280 278 277 279 281 284 286 289 291 289 284 283 283 282 281 276 275 279 275 282 297 299 289 280 274 273 279 270 271 271 271 271 271 270 269 267 265 262 262 263 261 261 263 264 263 260 259 258 255 258 261 258 256 256 259 261 252 240
22 329 309 304 301 306 299 293 296 298 291 294 300 302 295 295 293 291 292 290 289 288 289 289 289 286 283 283 281 281 279 280 281 282 284 288 290 289 284 282 276 275 277 277 291 66 306 310 321 312 301 286 284 282 284 272 270 268 267 266 266 266 268 270 268 263 263 260 259 262 263 264 264 263 258 253 254 254 252 254 256 256 258 260 255 246 233
330 330 297 297 292 288 278 273 275 279 285 286 280 276 279 285 288 289 288 287 287 287 288 290 289 290 289 289 286 282 282 282 280 281 282 284 286 285 280 275 276 272 266 271 305 358 305 315 313 303 295 287 280 276 271 268 267 271 269 266 263 264 264 265 265 264 264 262 260 261 263 262 263 263 261 257 255 251 244 247 250 253 257 259 254 244 235
313 314 309 294 288 283 284 286 282 276 276 282 286 284 279 279 281 283 284 285 287 289 284 281 284 285 284 285 284 283 282 282 281 277 276 280 282 278 277 280 283 291 292 312 321 311 319 319 303 295 280 278 279 279 275 275 267 263 262 262 263 260 261 260 261 262 260 260 263 261 261 262 262 261 261 259 259 253 248 244 246 249 245 247 251 246 238
288 292 296 297 292 283 285 284 284 279 275 269 276 280 284 285 283 281 279 282 284 285 284 283 284 281 282 280 281 282 284 288 295 302 306 302 297 291 287 280 280 289 325 327 318 306 303 299 294 282 278 276 276 279 282 282 280 275 269 264 262 262 259 258 258 259 260 259 257 252 252 256 258 261 264 266 263 257 254 250 243 242 243 246 248 248 242
261 270 276 280 276 282 277 280 280 279 279 278 273 274 279 280 281 282 282 286 287 284 282 281 281 278 277 278 280 285 293 297 292 286 287 294 291 286 281 281 298 69 325 327 314 305 301 293 285 286 284 285 280 286 289 292 288 278 274 269 266 263 261 259 256 256 258 260 260 262 262 264 262 261 260 259 258 258 257 256 252 247 242 236 243 243 239
258 267 271 271 272 272 272 270 276 282 278 271 272 274 275 273 276 279 285 289 292 292 284 280 278 280 283 286 290 293 291 287 282 280 285 283 282 290 289 281 344 353 318 315 307 304 298 294 286 284 287 290 290 288 287 286 277 272 267 268 265 264 261 262 261 261 261 262 264 265 268 265 266 268 267 267 266 258 258 260 258 255 250 240 235 242 243
255 251 252 254 258 261 261 264 266 267 276 278 275 276 276 279 279 279 276 276 282 284 283 280 283 286 288 289 289 288 287 284 282 280 285 274 263 261 271 292 320 318 317 311 303 299 297 291 297 292 298 299 293 290 288 281 268 263 264 265 266 266 267 266 266 266 264 262 262 261 260 260 261 262 266 266 266 265 260 258 256 255 254 253 246 241 238
262 259 259 265 267 265 265 268 269 273 274 278 274 270 274 273 269 264 262 270 275 275 276 280 285 289 288 290 291 289 288 296 294 293 297 304 307 295 264 314 321 313 311 308 307 302 298 303 302 303 303 300 298 296 290 274 274 275 276 274 273 273 272 271 269 266 264 264 263 262 261 261 261 265 269 270 268 265 262 259 260 258 253 244 238 225 216
267 268 274 270 270 275 275 265 268 272 270 274 281 273 266 266 279 276 273 272 272 272 277 283 286 289 292 293 286 284 286 287 283 291 311 321 317 303 336 336 317 312 314 318 311 305 305 309 311 313 313 311 310 308 301 298 300 301 301 298 297 296 294 293 293 293 289 287 281 280 282 282 282 285 279 271 269 263 258 250 243 196 200 192 166 138 137
276 271 267 273 272 266 259 256 266 276 281 278 275 272 276 295 296 293 280 281 293 287 268 270 284 289 295 293 288 283 286 292 307 304 281 310 288 297 314 314 314 316 321 322 312 313 310 318 322 325 327 330 330 321 318 319 326 323 325 319 319 315 315 315 319 320 326 329 330 335 335 330 340 338 333 316 302 294 311 62 91 88 84 90 97 99 93
269 274 272 265 266 270 265 269 296 303 293 298 307 305 312 319 314 308 307 315 313 311 302 295 293 296 300 301 309 318 331 335 334 330 70 339 310 303 306 311 314 321 327 323 325 320 327 334 339 345 346 342 340 336 331 330 333 339 333 335 332 332 334 339 341 345 350 353 357 7 14 15 9 6 2 1 5 4 9 36 69 91 89 95 93 93 94
287 286 283 280 284 286 275 298 314 318 313 309 310 303 303 311 309 297 299 310 320 319 311 301 310 318 317 317 321 321 327 330 325 316 360 330 310 304 307 314 319 327 325 320 324 324 336 347 353 358 358 358 353 350 344 344 341 336 336 339 345 344 346 349 352 359 360 10 15 21 23 20 17 14 15 14 14 13 17 30 48 68 74 89 101 102 101
288 284 284 285 289 295 296 293 301 311 314 313 306 295 303 302 298 302 319 326 329 331 325 317 314 323 331 326 326 325 324 310 285 283 311 318 311 310 307 312 314 324 326 317 319 318 338 348 354 358 358 357 352 351 351 345 345 346 344 342 341 351 356 4 12 11 25 25 30 28 31 27 24 20 21 21 22 22 26 28 30 29 33 56 69 76 86
294 289 285 294 297 298 297 303 297 307 315 309 292 298 302 308 312 330 334 330 325 319 316 325 326 325 336 331 329 326 319 315 299 293 296 297 304 309 313 314 312 320 327 325 321 327 334 346 353 358 0 358 360 3 2 357 357 360 359 358 359 3 7 8 14 19 25 32 39 41 40 41 42 41 42 38 33 31 28 30 33 33 33 37 36 47 54
303 293 283 291 300 289 289 280 267 321 308 296 295 296 302 305 301 312 318 326 327 330 332 327 318 324 335 335 321 320 320 316 308 309 309 310 312 311 317 320 319 332 335 342 345 344 348 354 354 357 356 359 2 6 9 6 4 7 6 6 1 3 5 7 12 15 17 19 27 30 32 39 43 51 51 49 47 48 45 45 42 43 43 41 40 45 45
278 281 277 272 290 291 290 260 149 326 301 293 293 300 302 303 303 299 298 332 336 327 329 331 324 328 349 335 324 323 322 322 319 318 318 318 323 315 321 334 343 346 347 348 346 349 354 350 351 354 358 360 1 358 358 4 10 10 9 8 8 9 12 9 8 11 12 15 24 32 36 36 38 40 38 35 36 39 42 45 47 48 48 46 46 45 50